Regional Weather Roundup
Issued by NWS Sterling, VA

Home | Current Version | Previous Version | Graphics & Text | Print | Product List | Glossary On
Versions: 1 2 3 4 5 6 7 8 9 10 11 12 13 14 15 16 17 18 19 20 21 22 23 24 25 26 27 28 29 30 31 32 33 34 35 36 37 38 39 40 41 42 43 44 45 46 47 48 49 50
916
ASUS41 KLWX 290011
RWRLWX

REGIONAL WEATHER ROUNDUP
NATIONAL WEATHER SERVICE BALTIMORE MD/WASHINGTON DC
800 PM EDT WED JUN 28 2017

Note: "FAIR" indicates few or no clouds below 12,000 feet
with no significant weather and/or obstructions to visibility.
 TC=TEMPERATURE CELSIUS

 * =Non NWS site. Station does not report precipitation (e.g. rain,
    snow, etc.), thunder, or fog.

DCZ001-MDZ009-015-VAZ040>042-051-053>054-290100-
WASHINGTON METRO

CITY           SKY/WX    TMP DP  RH WIND       PRES   REMARKS
WASHINGTON NAT CLOUDY    77  56  48 S13       30.13S
DULLES         MOCLDY    75  49  39 S7        30.13S
ANDREWS AFB    PTCLDY    75  53  45 SW6       30.13S
FT BELVOIR     PTCLDY    75  54  47 S5        30.13S
QUANTICO       CLOUDY    78  57  48 S14       30.14F
COLLEGE PARK*  MOCLDY    78  50  37 S5        30.12S
LEESBURG*      PTCLDY    77  55  47 S5        30.14S
MANASSAS*      CLOUDY    73  58  59 SE6       30.14S
GAITHERSBURG*  PTCLDY    76  51  41 S5        30.15S

$$

MDZ006>007-011-014-290100-
BALTIMORE METRO

CITY           SKY/WX    TMP DP  RH WIND       PRES   REMARKS
BWI AIRPORT    MOCLDY    73  56  54 VRB6      30.13S
MD SCIENCE CTR   N/A     77  54  44 MISG      30.13F
MARTIN STATE   MOCLDY    75  55  50 S8        30.14F
ANNAPOLIS      CLOUDY    72  58  61 S10       30.13F
FORT MEADE*    PTCLDY    70  55  60 SE5       30.16S

$$

MDZ012-015-019>023-290100-
MARYLAND EASTERN SHORE

CITY           SKY/WX    TMP DP  RH WIND       PRES   REMARKS
OCEAN CITY       N/A     69  60  73 VRB6      30.18F
SALISBURY      CLEAR     72  58  61 S6        30.16S
BAY BRIDGE AP* CLOUDY    75  55  50 S9        30.14S
CAMBRIDGE*     CLEAR     73  55  53 CALM      30.15F
EASTON*        CLEAR     77  48  36 S5        30.18F

$$

MDZ017>025-290100-
SOUTHERN MARYLAND

CITY           SKY/WX    TMP DP  RH WIND       PRES   REMARKS
PATUXENT RIVER MOCLDY    72  54  53 S7        30.16S
ST INIGOES     CLOUDY    73  55  53 SE6       30.16S
LEONARDTOWN*   CLOUDY    72  54  53 SE5       30.17F

$$

MDZ003>005-290100-
NORTH CENTRAL MARYLAND

CITY           SKY/WX    TMP DP  RH WIND       PRES   REMARKS
FREDERICK*     CLEAR     77  50  38 CALM      30.15F
HAGERSTOWN APT CLOUDY    76  49  38 S8        30.12S
WESTMINSTER*   PTCLDY    79  50  36 S5        30.14F

$$

MDZ501>502-290100-
WESTERN MARYLAND

CITY           SKY/WX    TMP DP  RH WIND       PRES   REMARKS
OAKLAND*       CLEAR     61  46  59 SW3       30.05F
CUMBERLAND*    CLEAR     77  54  44 CALM      30.15S

$$

VAZ025>031-290100-
SHENANDOAH VALLEY

CITY           SKY/WX    TMP DP  RH WIND       PRES   REMARKS
WINCHESTER*    CLOUDY    72  52  49 SE6       30.13S
FRONT ROYAL*   PTCLDY    73  54  49 S3        30.12S
LURAY*         CLOUDY    73  54  49 S6        30.13S
NEW MARKET*    CLOUDY    73  53  49 S6        30.12S
STAUNTON*      CLOUDY    73  52  49 S6        30.17F
WAYNESBORO*    PTCLDY    72  56  57 SE3       30.16F

$$

WVZ021-048>050-054>055-290100-
EASTERN WEST VIRGINIA PANHANDLE

CITY           SKY/WX    TMP DP  RH WIND       PRES   REMARKS
MARTINSBURG    PTCLDY    74  53  48 SE5       30.11S
PETERSBURG*    CLEAR     73  57  57 NW3       30.12R

$$

VAZ036>039-050-290100-
CENTRAL FOOTHILLS

CITY           SKY/WX    TMP DP  RH WIND       PRES   REMARKS
CHARLOTTESVILL CLEAR     76  55  48 S6        30.14S
CULPEPER*      CLOUDY    76  55  47 S5        30.14S
ORANGE*        CLOUDY    73  54  49 CALM      30.15R
GORDONSVILLE*  CLOUDY    76  55  47 S5        30.14S
WARRENTON*     PTCLDY    76  50  40 SE5       30.14R

$$

VAZ055>057-290100-
NORTH AND CENTRAL PIEDMONT

CITY           SKY/WX    TMP DP  RH WIND       PRES   REMARKS
FREDERICKSBRG* CLOUDY    76  56  48 S6        30.14R
STAFFORD*      CLOUDY    74  53  48 CALM      30.18S

$$

NCZ024-NYZ072-PAZ021-071-VAZ022-071-290100-
OTHER REGIONAL OBSERVATIONS

CITY           SKY/WX    TMP DP  RH WIND       PRES   REMARKS
NEW YORK CITY  CLEAR     75  48  38 CALM      30.11S
PHILADELPHIA   MOCLDY    77  49  37 SW10      30.12S
PITTSBURGH     MOCLDY    73  51  46 S5        30.10S
ROANOKE        PTCLDY    75  56  51 SE12      30.18R
RICHMOND       MOCLDY    76  54  46 SE7       30.16S
RALEIGH        PTCLDY    79  54  41 S6        30.18R

$$

ANZ530>537-290100-
MARINE OBSERVATIONS

STATION/POSITION TIME  TEMP    WIND        PRES
                       AIR SEA DIR/SP/G
                 (UTC) (F)     (DEG/KT/KT) (MB)
THOMAS PT LIGHT  0000   75 77  170/ 15/ 17   N/A
BALT KEY BRIDGE  2348   74     170/ 12/ 14 1019.8F
COVE POINT       2348   74     190/ 13/ 16 1021.7F
LEWISETTA        2348   73 80  170/  8/ 10 1021.4S
SOLOMONS ISLAND  2348   74 79  170/ 10/ 12   N/A
PINEY POINT      2348          180/ 14/ 15   N/A

$$





USA.gov is the U.S. government's official web portal to all federal, state and local government web resources and services.